RH
92 96 96 92 95 98 86 98 89 69 72 84 80 71 73 69 72 76 75 86 89 86 84 86 76 69 63 47 39 34 36 40 41 34 30 32 30 27 31 31 29 30 30 31 32 36 41 45 46
68 82 96 91 99 95 93 93 90 96 73 67 74 67 68 70 69 74 73 79 84 95 86 89 81 69 67 48 36 32 31 40 39 37 32 29 31 32 33 32 35 35 37 37 36 38 42 46 48
60 64 68 56 59 92 89 94 85 86 79 77 72 72 74 71 68 75 73 78 80 88 93 90 83 75 70 60 40 32 29 34 37 37 37 26 25 30 32 30 30 32 34 37 35 33 34 39 45
45 40 31 51 62 56 60 88 92 88 86 85 75 73 71 68 66 71 70 77 82 87 94 96 90 84 78 72 46 36 35 29 27 26 23 24 24 24 25 26 27 29 34 33 30 30 30 33 34
60 91 37 40 43 50 77 74 79 84 86 80 84 78 71 65 65 67 71 80 84 89 92 98 97 87 90 91 49 38 38 42 29 21 20 19 19 19 20 20 21 22 24 25 28 28 25 25 33
17 96 80 31 23 26 36 55 76 84 85 83 81 81 76 70 66 60 64 74 80 88 91 93 100 97 94 97 62 44 38 46 47 40 28 21 22 17 16 16 16 17 19 26 34 40 23 27 61
52 52 100 60 26 20 19 19 33 59 76 77 70 76 73 71 68 67 61 65 78 90 90 84 91 99 87 96 77 54 43 45 49 34 18 16 13 14 16 18 19 19 22 30 47 37 34 43 60
32 76 71 92 71 24 23 21 19 24 44 42 41 57 51 49 58 64 64 62 64 73 86 76 96 98 98 96 94 77 57 48 54 30 27 29 20 25 27 24 24 27 47 52 45 41 40 42 43
96 38 78 68 46 26 23 22 21 20 23 22 33 34 43 31 32 46 56 53 57 68 78 72 94 98 97 97 97 91 73 54 42 35 40 41 33 36 32 30 28 28 32 48 42 41 36 37 38
93 59 88 64 24 22 25 25 25 23 21 20 20 32 27 27 25 24 26 45 53 60 70 70 62 69 82 88 91 96 83 52 45 47 51 34 36 37 33 28 28 32 30 45 53 47 51 46 44
85 98 80 19 18 21 23 24 26 28 24 26 25 21 19 18 18 18 19 26 28 26 46 58 60 62 62 57 89 97 90 56 57 45 52 47 31 30 33 29 29 31 31 32 41 46 47 42 39
97 70 56 17 16 15 16 20 25 25 28 23 28 29 27 19 18 24 19 28 28 32 36 49 45 46 46 46 72 94 96 94 60 56 67 52 30 28 31 32 32 34 35 34 37 33 34 35 42
73 65 28 16 19 15 14 13 14 18 25 28 23 25 16 13 12 12 14 15 13 11 14 28 43 43 49 47 56 89 96 96 78 83 88 61 32 30 31 28 31 27 27 28 31 30 29 27 36
71 100 80 19 33 28 12 19 33 27 16 20 26 26 23 15 14 14 13 11 17 11 12 12 33 46 54 51 47 94 91 91 98 95 94 64 35 32 39 31 23 17 18 22 22 21 24 27 39
50 50 26 76 94 62 94 46 41 18 20 11 14 22 21 19 17 15 13 10 9 8 14 21 26 38 63 57 47 58 87 91 95 96 81 54 49 34 42 47 48 44 18 24 22 21 21 52 57
91 86 82 45 54 82 50 63 79 39 24 17 17 12 14 16 14 14 12 10 6 7 20 30 28 30 42 56 54 43 62 84 94 96 94 74 67 55 50 54 60 61 41 18 24 33 54 64 64
97 78 98 87 83 97 44 54 74 76 40 34 15 13 13 13 13 10 12 13 10 28 35 29 24 25 29 43 50 42 47 83 77 82 95 81 79 71 63 68 74 66 34 14 29 56 61 64 70
98 81 78 81 89 83 75 98 71 57 65 52 90 28 18 24 22 17 24 32 42 36 31 46 49 52 52 50 53 44 36 66 72 74 96 93 85 77 72 74 78 61 27 18 51 64 64 78 80
98 88 97 86 65 73 100 74 95 98 77 83 98 44 29 30 31 20 46 43 47 30 46 52 51 50 52 53 53 52 39 58 64 57 71 95 85 81 82 79 79 59 39 40 59 59 75 81 87
53 91 88 87 96 66 73 70 95 69 64 90 80 72 52 41 31 35 28 41 36 44 57 54 58 64 57 54 57 58 57 58 62 68 59 73 83 83 91 84 79 58 55 54 66 72 81 90 89
23 69 90 80 81 81 65 56 87 70 54 39 38 39 63 27 18 45 41 46 34 50 55 58 61 60 59 62 66 68 74 78 76 71 53 62 78 90 81 81 77 74 71 71 72 80 87 77 49
69 61 91 65 78 68 98 90 100 80 18 10 21 24 94 64 14 26 34 41 38 33 46 53 52 59 57 60 69 73 74 74 70 67 68 82 85 86 77 83 75 76 77 72 78 87 68 29 34
98 56 67 84 95 98 89 93 92 96 63 29 20 25 32 42 37 38 44 54 42 37 46 46 50 50 57 62 68 71 78 80 68 73 76 91 91 79 79 75 80 76 75 84 86 58 19 16 34
73 80 59 44 94 74 92 61 94 51 15 66 54 33 62 92 22 46 92 48 38 52 44 54 54 56 60 66 65 66 73 73 74 66 64 77 82 80 82 85 78 77 82 84 72 27 20 35 32
93 61 69 89 55 81 62 76 96 95 94 95 89 12 10 25 20 28 38 50 33 47 49 52 40 42 59 61 55 65 72 68 68 67 66 68 62 69 81 82 82 84 70 83 27 19 31 24 10
97 89 98 83 74 95 84 91 91 97 98 71 95 55 10 27 32 37 34 45 36 44 44 45 32 26 47 62 60 52 60 71 69 63 62 59 66 80 92 85 81 76 78 53 24 30 22 6 4
73 96 97 93 50 86 98 91 93 76 77 26 98 62 18 36 89 57 36 40 46 42 29 23 28 24 64 60 73 78 54 66 60 52 47 49 64 88 84 76 75 80 68 29 30 26 4 4 4
64 91 93 90 48 75 97 83 94 60 24 23 95 27 19 19 30 33 41 53 40 24 31 29 8 42 68 62 66 76 66 60 65 72 70 68 73 81 89 81 83 61 38 28 16 4 4 4 5
79 92 72 80 81 84 99 97 91 85 96 99 82 37 26 21 18 31 46 25 26 36 19 16 46 45 71 61 65 74 60 72 72 89 74 88 96 90 86 73 45 25 19 7 4 4 5 6 5
53 82 92 88 62 88 94 98 71 54 92 91 77 91 86 26 28 27 74 28 30 14 27 58 66 55 72 79 76 71 58 62 82 88 96 86 90 90 72 33 9 11 5 4 5 6 6 5 6
Wind_Speed
21 14 16 18 14 16 15 15 18 16 14 11 10 10 10 8 8 9 9 10 11 13 14 13 12 10 10 11 13 15 16 17 18 19 18 19 18 17 16 16 17 17 16 14 13 13 13 13 12
18 20 11 11 12 10 15 11 13 13 17 15 12 10 10 10 10 8 8 10 10 11 13 13 13 11 10 11 13 14 15 16 18 18 18 17 19 18 17 16 15 15 15 15 15 13 12 12 11
14 20 10 10 17 11 8 12 12 11 13 12 12 10 12 11 9 10 9 8 9 10 13 15 13 12 11 10 12 14 14 14 15 15 16 15 17 18 17 16 15 14 14 14 14 12 11 10 9
19 18 16 20 13 15 12 10 8 15 14 9 10 11 12 11 10 11 10 9 9 9 10 12 13 11 13 12 12 14 14 14 15 16 15 16 16 16 17 16 14 14 12 12 11 10 10 9 9
15 22 20 14 16 14 15 16 9 9 12 13 11 9 9 9 12 11 10 10 8 8 7 6 13 12 15 17 16 15 13 13 11 14 14 14 14 14 14 14 13 12 10 10 10 9 9 10 11
21 11 18 13 12 13 12 11 8 9 10 9 12 10 9 11 10 11 12 10 10 9 8 4 9 18 14 17 17 17 14 13 11 10 11 11 11 11 11 11 10 10 10 10 9 9 10 10 11
16 22 10 8 10 11 10 9 8 8 8 8 9 10 9 11 11 12 12 12 11 10 9 7 9 17 12 17 19 17 16 14 13 10 11 11 12 11 10 10 9 9 9 9 10 9 10 9 7
24 23 8 16 10 7 7 7 5 4 6 7 9 9 8 9 11 14 13 14 14 13 9 10 11 26 23 23 21 18 17 16 13 12 12 11 11 10 8 9 9 9 11 11 10 9 9 8 8
27 9 7 5 3 4 5 5 3 2 4 2 5 5 7 8 8 10 10 13 12 13 9 10 14 13 5 17 20 22 19 18 15 13 12 12 10 9 8 6 7 6 6 7 7 8 8 8 8
2 7 7 3 3 3 4 4 3 2 2 6 6 6 8 9 9 8 7 8 9 9 6 6 13 13 10 11 18 19 20 17 15 14 12 12 9 8 7 6 4 5 5 3 3 4 5 5 7
13 11 7 5 5 5 3 1 1 1 2 3 5 7 9 9 9 8 7 8 7 7 8 4 7 10 11 11 16 16 21 19 16 15 14 12 10 9 8 6 5 5 4 3 1 1 4 6 6
3 1 3 3 7 1 1 2 2 4 4 4 7 7 7 7 6 5 6 9 8 8 8 7 6 9 10 9 5 2 9 21 19 17 14 13 12 9 8 8 6 6 4 3 2 1 4 5 7
4 4 6 5 9 6 4 5 5 7 5 7 8 9 9 7 5 5 6 5 8 9 10 9 9 8 11 11 8 7 9 17 19 18 19 14 11 10 9 8 6 4 3 2 0 2 4 6 7
3 5 10 5 3 5 5 6 7 11 12 10 10 12 10 10 9 10 11 12 9 11 11 11 11 9 10 14 12 12 11 15 14 20 21 15 14 12 9 7 6 3 2 1 1 1 3 5 7
2 4 3 4 10 7 5 8 10 11 11 11 14 13 14 14 14 14 15 18 14 14 12 12 12 12 10 12 15 11 10 9 15 12 22 17 14 14 10 8 6 4 3 1 1 2 4 7 10
8 10 16 9 10 11 8 10 16 12 6 7 14 16 18 15 16 18 18 19 16 13 10 11 12 14 12 12 14 15 8 10 9 14 18 18 16 12 11 10 6 4 4 3 3 3 6 8 11
15 7 13 8 11 15 5 11 11 21 9 5 7 12 14 16 16 14 14 14 11 6 7 9 11 13 15 14 13 16 14 10 12 11 20 21 18 15 14 10 7 5 4 4 4 4 7 10 13
20 2 11 16 6 6 12 17 18 20 4 11 14 8 10 7 11 12 6 5 6 5 4 4 9 13 15 14 14 15 16 17 14 8 22 23 20 18 16 12 9 5 5 5 5 7 9 12 14
13 9 11 13 9 11 15 23 25 17 27 7 30 11 10 11 12 11 6 7 8 6 3 6 9 13 12 12 13 14 18 18 15 11 9 18 20 18 17 14 12 8 5 6 7 10 13 16 18
9 9 15 11 11 17 14 17 17 13 10 19 13 24 6 9 9 11 11 11 7 7 6 7 8 9 11 12 12 14 15 19 17 14 11 15 20 22 22 17 14 9 7 7 8 11 15 16 16
14 17 11 12 6 16 13 13 17 15 10 6 12 8 21 9 6 10 9 10 6 7 8 9 9 8 10 11 13 16 18 16 13 15 15 18 19 18 19 18 15 8 8 10 10 12 14 10 12
9 24 12 14 6 10 18 15 15 15 12 6 3 8 5 12 5 8 10 10 8 9 9 10 11 9 9 11 13 15 15 15 14 9 10 14 19 19 14 16 12 8 9 8 8 11 7 10 11
19 24 13 11 5 13 23 25 15 4 14 5 3 2 8 7 5 7 9 12 9 7 9 10 10 9 7 12 14 15 15 14 16 13 12 20 19 17 16 14 11 6 7 5 8 7 9 10 11
27 19 11 18 18 16 21 25 12 16 15 4 10 13 7 19 10 7 7 12 8 7 8 8 9 8 10 14 16 16 14 13 17 13 14 22 21 19 17 14 9 8 4 5 5 6 8 9 7
31 18 17 28 10 10 11 22 6 15 15 5 17 7 7 8 11 12 11 9 9 6 8 10 12 10 12 14 16 17 15 15 16 15 18 20 18 19 18 10 9 7 4 4 5 6 4 5 6
17 12 22 25 22 20 17 22 10 19 8 9 16 12 10 3 5 7 9 8 5 7 9 10 13 13 12 15 15 17 18 17 17 18 20 20 18 19 17 10 8 5 5 6 4 4 3 2 4
21 14 22 25 19 20 28 20 8 16 7 7 14 15 7 5 11 8 3 6 5 8 10 10 14 15 11 13 17 19 20 19 19 16 18 19 19 16 17 14 9 7 7 5 5 2 3 2 2
22 28 26 17 19 14 23 27 13 7 10 2 16 8 1 4 5 2 3 5 6 6 8 11 15 14 6 10 14 16 22 19 14 13 13 20 17 16 17 12 10 10 7 7 6 2 5 4 2
25 24 27 21 18 10 22 28 19 12 10 9 11 6 5 3 4 2 3 4 4 5 7 12 16 13 3 6 12 16 22 18 12 12 15 18 16 19 13 15 13 8 10 7 5 6 6 3 5
28 26 21 16 21 27 30 26 24 8 12 9 13 9 12 6 3 3 3 4 5 5 6 10 18 12 2 8 8 18 23 20 17 13 16 13 17 20 18 12 10 11 7 5 6 7 4 6 6
Wind_Direction
78 121 143 129 147 166 162 156 167 177 178 176 168 171 186 154 157 157 149 149 145 144 140 147 141 131 123 117 122 126 120 118 117 112 104 103 104 103 99 96 91 90 89 85 81 75 73 74 68
84 85 95 118 127 153 166 172 164 172 181 183 187 178 182 181 167 163 174 161 158 162 159 158 156 151 143 133 127 128 123 123 121 117 110 105 105 101 97 94 91 91 87 83 81 80 74 69 62
82 89 115 104 80 119 154 181 186 184 179 188 190 191 178 179 172 168 181 178 179 182 180 171 166 168 157 145 135 132 130 127 125 120 114 109 105 104 101 100 99 95 93 93 88 88 82 77 66
82 84 85 86 91 94 74 183 172 177 173 200 198 182 182 180 171 176 178 194 195 206 220 180 177 186 170 169 148 137 137 131 129 121 118 113 113 115 113 111 109 107 104 98 95 86 79 72 60
73 70 69 84 93 93 94 96 115 147 193 204 193 202 192 173 185 181 188 203 204 215 228 201 203 198 203 170 159 145 143 137 135 128 123 121 120 119 119 117 117 113 105 99 86 76 75 71 64
85 84 39 66 94 96 102 112 132 150 168 190 181 197 199 201 195 185 199 206 218 213 224 228 236 220 216 177 161 153 158 153 147 147 136 135 133 128 131 129 122 116 109 103 87 83 78 82 74
63 82 91 16 71 92 100 113 134 156 185 195 193 192 208 223 198 209 215 217 229 233 224 234 239 236 233 221 167 161 160 166 156 164 142 140 136 134 131 122 123 124 116 102 94 97 92 92 74
80 82 81 101 329 50 79 95 100 130 173 193 203 198 211 224 220 220 211 222 227 236 230 238 259 242 241 208 171 165 170 171 168 169 152 147 141 138 134 130 123 113 110 102 98 96 86 79 67
95 79 56 54 315 42 59 75 101 143 214 260 254 167 217 232 236 231 216 233 234 241 233 230 251 298 359 208 177 170 180 171 172 176 167 158 156 154 150 152 139 121 109 114 110 90 71 55 42
35 93 27 92 72 53 47 55 72 143 224 235 249 235 237 235 240 242 229 225 231 248 254 230 253 288 303 286 278 223 174 178 178 178 179 159 163 158 155 154 135 112 109 113 128 89 60 33 17
28 97 213 341 42 56 23 291 249 263 242 217 228 232 231 227 228 238 243 238 240 252 267 244 253 267 277 294 295 218 187 182 183 183 182 167 172 158 157 152 130 118 114 118 99 301 347 359 346
53 240 247 290 307 67 37 304 294 245 259 223 212 207 203 216 225 228 223 236 251 258 260 269 261 277 271 274 334 277 213 179 188 186 191 180 172 168 152 140 131 117 101 89 88 314 338 339 332
235 313 302 257 257 267 228 246 253 262 233 231 224 226 221 236 251 239 252 264 278 269 264 269 270 273 284 265 258 221 235 195 196 195 198 191 185 177 168 158 146 139 155 144 340 351 325 329 343
322 153 291 297 297 273 249 272 281 271 261 238 232 234 242 245 254 270 280 268 285 290 286 269 265 261 272 263 243 240 258 221 228 218 202 194 194 180 182 166 163 175 173 195 253 321 336 345 346
233 308 232 148 298 321 313 284 256 275 290 267 249 245 239 251 256 262 273 282 281 280 281 282 273 271 277 264 249 242 249 261 213 188 175 194 196 191 188 183 183 192 218 204 313 311 341 348 343
223 240 264 198 232 226 286 290 282 274 301 298 274 260 264 259 266 272 276 275 272 267 269 278 278 273 278 273 252 240 252 231 238 221 190 195 200 197 198 199 212 255 238 252 283 315 349 331 341
248 253 304 288 276 222 236 281 273 303 297 327 297 274 263 267 269 269 269 271 255 230 266 275 278 273 275 277 254 236 221 209 238 236 216 215 207 203 210 214 228 252 260 245 268 317 323 332 338
271 348 10 344 222 318 315 281 302 306 293 302 258 281 267 257 269 265 252 251 271 261 248 280 282 270 270 262 241 235 221 220 221 230 213 222 215 212 220 233 241 245 249 248 271 314 329 330 328
286 44 278 321 351 338 332 325 315 278 297 267 249 287 273 287 269 266 251 280 287 275 268 292 284 261 260 243 232 230 216 224 225 223 238 203 212 221 223 237 243 236 249 267 291 317 327 330 329
241 303 266 292 326 338 332 324 282 305 313 245 269 245 282 264 270 278 267 264 266 267 287 312 299 259 256 243 230 220 220 225 229 225 226 233 225 241 232 228 238 235 252 271 305 317 325 327 323
249 246 262 281 324 309 303 317 300 313 302 243 258 205 241 247 274 287 281 258 256 269 282 293 291 269 258 247 233 220 218 229 244 218 228 234 232 204 212 221 231 242 253 274 302 318 323 335 351
228 251 271 287 289 294 298 298 269 301 323 298 247 291 231 256 266 275 264 264 268 268 284 285 280 270 249 240 234 226 226 226 221 208 228 200 181 197 205 210 226 249 258 276 299 316 332 336 346
235 265 261 271 301 276 285 276 248 343 278 42 312 254 226 219 264 258 268 266 268 271 285 294 281 257 250 233 231 224 225 221 207 214 209 193 191 195 206 212 232 240 242 282 302 306 329 334 341
263 276 235 268 278 295 286 272 237 51 352 105 318 295 297 204 266 238 265 248 241 259 279 297 287 262 243 237 229 230 222 216 205 219 219 200 198 209 213 224 221 215 229 287 292 317 327 346 356
278 262 275 295 282 285 311 312 193 72 5 355 286 329 313 236 245 227 225 226 244 267 283 292 297 284 250 244 228 219 216 209 210 214 204 203 210 221 207 198 192 195 235 271 293 311 334 339 3
222 243 264 267 280 305 311 310 307 93 126 207 270 298 331 338 229 225 213 216 225 272 283 292 295 301 273 233 216 214 209 205 207 208 210 213 209 207 194 185 190 217 250 252 283 278 327 308 16
251 243 244 261 255 283 294 302 280 119 157 183 228 269 316 212 223 264 186 273 285 283 285 306 300 319 288 223 214 207 201 206 208 210 210 205 201 198 191 209 230 239 201 214 225 242 295 325 250
252 254 242 249 259 265 315 305 269 152 139 200 219 280 25 192 186 189 254 273 277 282 304 316 319 328 273 218 207 204 189 196 205 199 204 202 187 187 193 197 219 194 203 202 201 210 220 200 177
249 253 254 268 275 256 288 306 313 83 150 198 222 288 341 11 57 80 300 274 259 283 319 318 323 330 249 203 208 204 190 181 180 174 143 148 170 177 193 176 169 179 196 182 190 209 179 171 89
267 228 256 275 281 280 279 286 289 123 160 178 186 220 279 327 340 71 332 284 283 293 342 339 337 339 205 172 198 185 187 190 174 173 146 153 161 165 166 168 171 168 155 181 198 193 173 96 67